Wind_Speed
7 7 7 8 7 7 7 7 7 7 8 8 7 6 6 6 7 7 8 7 7 7 7 7 7 7 7 7 7 7 6 5 5 4 4 4 3 2 1 1 1 2 3
7 7 7 7 7 8 7 7 7 7 8 7 7 6 6 6 7 8 8 7 6 6 6 8 8 8 7 7 7 6 5 4 4 3 3 4 3 2 1 1 1 2 2
7 6 6 7 7 8 8 8 8 8 7 7 7 7 7 7 7 8 7 7 6 6 7 9 9 8 9 8 6 5 4 4 5 3 3 3 2 1 1 1 2 2 2
7 6 6 6 7 8 8 8 8 8 7 7 7 7 7 7 7 7 7 7 6 7 9 9 10 10 9 7 6 5 5 4 4 3 3 3 2 1 1 1 2 2 2
7 7 7 7 8 8 8 8 8 8 8 7 7 7 7 6 6 7 7 8 8 9 10 10 10 9 8 7 6 6 6 4 5 4 3 3 2 1 0 2 2 2 2
7 7 8 8 9 8 8 8 9 8 8 8 7 7 7 7 7 7 7 8 8 9 10 10 9 8 7 7 6 5 5 5 5 4 4 3 1 1 1 1 2 2 3
8 8 9 8 9 9 9 9 9 8 8 8 8 7 7 7 7 8 8 9 9 9 8 8 8 8 7 7 6 5 5 5 5 4 3 2 1 1 0 2 2 3 3
9 9 9 9 9 8 9 9 10 9 9 9 9 7 7 7 8 9 9 9 9 9 8 7 8 7 7 7 6 5 5 5 4 3 2 1 1 0 1 2 3 3 3
9 9 9 10 10 10 9 10 10 10 9 9 9 9 9 9 8 8 8 8 7 7 7 7 6 6 5 5 5 4 5 4 3 2 1 0 0 1 2 2 2 3 3
9 9 10 10 11 11 10 10 11 10 11 11 11 10 11 10 9 8 8 7 6 6 6 6 6 6 5 4 4 5 4 3 1 1 0 1 1 1 2 2 2 2 2
10 10 11 11 12 12 11 11 12 12 11 11 11 11 11 10 9 8 8 7 6 5 6 6 6 5 5 5 4 3 2 2 1 0 0 1 1 2 2 3 2 2 2
10 10 11 12 12 12 12 11 11 12 11 10 10 11 10 9 9 8 7 7 5 5 5 6 5 5 4 4 3 3 2 1 1 0 1 2 2 3 3 3 2 3 3
11 11 12 12 12 12 11 11 11 11 11 10 9 9 9 9 8 8 7 6 5 5 4 5 5 5 4 4 3 2 1 1 1 1 1 1 2 2 2 3 4 4 4
12 12 12 12 12 12 12 12 12 12 11 11 10 10 9 8 8 7 6 5 5 5 4 4 4 4 3 3 2 2 2 2 2 2 3 3 3 3 3 4 5 5 5
12 12 12 12 12 12 12 12 13 12 12 11 10 9 9 8 7 7 6 5 5 5 4 4 4 4 3 2 2 2 3 3 3 3 4 4 3 4 5 6 6 6 6
11 11 11 12 11 11 11 12 12 12 12 11 10 10 9 8 7 7 6 6 5 5 4 3 3 3 2 2 2 2 3 3 3 4 4 5 5 5 6 6 7 7 7
10 10 10 10 11 10 10 10 11 11 11 11 11 10 10 9 7 6 6 5 5 5 5 3 2 2 1 1 1 1 2 3 4 5 5 6 6 6 6 6 7 8 9
9 9 9 9 9 9 9 9 10 9 9 9 10 10 10 9 9 8 7 6 6 5 4 4 3 2 1 1 1 2 3 3 5 5 6 6 6 6 6 7 7 9 9
8 8 8 8 8 8 8 8 8 8 8 7 8 8 9 9 8 8 7 7 6 5 5 4 4 3 2 2 2 2 3 3 5 5 6 6 6 6 6 8 8 9 10
7 7 8 7 7 7 7 7 7 7 7 7 7 7 7 8 7 7 6 6 6 5 5 4 4 3 3 3 3 3 3 4 5 5 6 6 6 6 7 7 9 10 10
7 7 6 6 6 6 6 6 6 6 6 6 6 6 6 6 6 7 6 5 5 5 4 3 3 3 3 4 4 4 4 5 5 6 6 7 7 7 8 8 9 9 10
5 5 5 5 5 5 5 5 5 5 4 4 4 5 5 4 5 6 6 5 4 4 3 4 4 4 4 5 5 5 5 6 6 7 8 8 8 9 9 10 10 10 12
4 4 4 4 4 4 4 3 3 4 4 4 3 4 4 4 4 5 5 5 5 4 4 4 5 5 6 6 6 6 6 6 7 8 8 9 9 10 10 11 12 13 13
3 3 3 3 3 3 3 3 3 3 3 3 3 3 3 3 4 4 5 5 5 4 4 5 6 6 6 7 7 6 7 7 8 8 9 9 10 10 11 12 13 14 14
0 1 1 1 2 2 3 3 3 3 3 3 3 3 4 3 4 4 4 5 5 5 5 6 6 7 8 8 7 7 8 8 8 9 9 10 10 11 12 13 14 15 16
1 1 1 1 2 3 3 4 4 4 4 4 4 4 4 4 5 5 5 5 6 6 7 7 8 8 8 8 8 9 9 9 9 10 10 11 12 13 14 14 15 16 17
Wind_Direction
54 55 56 57 58 65 68 72 77 73 73 73 76 77 91 110 117 118 123 120 119 133 151 144 149 151 155 157 155 156 153 148 150 155 158 161 161 172 203 246 285 298 296
52 53 62 61 60 63 63 71 73 78 77 73 70 71 89 105 111 111 119 122 121 128 139 140 146 148 154 163 160 157 156 146 138 150 159 166 169 170 162 225 276 284 284
52 58 62 62 60 62 65 72 73 75 75 73 73 73 88 103 107 111 114 119 114 108 127 137 140 143 148 145 143 147 150 153 148 152 163 169 175 181 206 237 272 278 313
52 61 62 59 61 64 68 69 71 69 70 74 75 79 88 100 109 115 121 123 110 105 117 129 132 133 137 137 140 142 144 151 154 158 165 169 167 180 222 258 289 319 317
56 62 61 62 61 63 67 68 70 68 67 71 74 79 89 100 112 117 125 123 112 110 120 127 131 132 130 125 128 138 140 143 155 158 159 151 146 168 237 285 316 323 315
62 62 64 66 63 65 72 74 71 70 69 69 74 81 91 103 114 122 127 124 114 116 125 129 133 132 127 123 128 147 147 155 154 154 151 143 146 209 229 304 317 314 303
68 69 68 70 69 67 70 75 73 72 71 72 76 85 97 109 114 115 120 118 115 118 124 130 134 135 137 142 139 140 140 142 144 149 154 161 167 158 51 347 326 326 308
70 71 70 69 70 69 70 72 74 79 76 72 76 86 97 106 110 113 117 120 120 124 126 129 132 130 126 132 131 123 117 116 125 138 164 167 167 47 14 350 334 328 315
72 71 71 69 70 70 69 72 71 75 75 76 80 84 94 104 110 113 116 121 122 122 120 124 132 133 126 124 125 131 128 129 132 142 148 310 336 358 341 339 342 339 326
70 70 72 70 69 70 71 72 72 70 72 77 80 87 94 99 105 112 116 118 118 116 119 128 133 131 132 129 123 119 121 120 123 99 26 328 318 320 321 328 327 332 333
73 73 74 73 70 73 73 75 76 75 73 78 83 88 94 96 99 107 112 115 112 113 122 131 139 138 134 132 129 123 117 100 69 228 236 310 299 298 312 305 307 312 320
72 72 77 78 73 77 77 76 77 74 74 79 87 89 87 90 93 100 106 108 109 113 127 134 137 139 141 143 143 145 138 134 354 308 288 290 296 296 296 297 298 297 301
71 72 78 80 77 76 76 75 75 72 73 76 82 87 87 91 95 96 98 107 107 108 115 125 138 143 150 159 158 162 162 182 261 265 279 290 288 295 291 297 302 302 306
74 74 76 79 78 77 77 77 74 75 74 76 84 89 88 87 87 89 90 96 98 94 101 124 137 139 148 158 177 196 234 247 256 271 285 290 291 292 286 290 297 301 304
73 74 76 79 79 77 78 79 75 75 78 80 79 81 83 84 84 84 83 88 91 91 101 111 121 135 156 178 213 235 249 253 266 281 284 289 286 286 294 298 299 301 304
72 74 76 80 79 77 78 79 75 74 76 76 75 73 72 76 80 84 82 84 91 91 102 107 123 133 157 186 217 252 284 279 286 285 289 292 292 289 292 296 306 311 309
71 75 78 79 81 80 78 79 75 75 74 72 69 69 67 66 71 79 79 79 79 76 81 81 85 96 122 176 202 269 311 312 313 310 304 297 293 294 293 295 301 308 309
71 76 80 80 82 81 77 75 75 74 75 73 70 67 63 59 60 67 69 67 63 64 66 66 68 71 66 35 352 332 331 332 329 331 324 312 304 304 300 296 303 308 307
70 76 82 79 80 81 79 76 75 74 75 73 71 66 61 58 59 60 57 58 58 62 62 62 57 50 35 14 349 327 320 325 326 332 330 325 323 319 312 302 303 307 308
71 74 79 79 78 80 78 75 75 74 73 70 69 65 59 58 58 53 49 50 51 60 66 67 61 44 27 3 343 322 313 317 318 326 327 326 325 326 321 318 312 314 312
72 74 78 82 80 79 75 71 68 64 68 66 65 60 58 60 55 46 38 41 47 51 58 53 47 28 5 346 337 329 324 318 321 319 318 319 319 320 319 319 317 315 312
67 75 77 78 78 74 70 64 57 51 53 56 50 48 46 49 41 35 35 35 35 34 34 16 9 356 341 334 333 326 317 318 318 318 313 312 314 314 314 315 314 311 313
66 70 73 75 70 62 56 52 49 35 34 43 39 31 32 37 30 30 27 24 15 9 6 354 352 348 340 338 340 334 325 319 317 316 313 312 311 310 311 310 312 311 313
69 68 64 70 63 48 34 22 20 12 13 18 16 10 8 9 13 13 5 3 359 352 344 338 333 338 337 333 332 335 334 328 320 315 312 311 308 310 311 310 309 308 309
82 74 62 65 36 13 356 342 335 332 336 339 337 336 333 334 338 341 342 345 347 336 327 325 325 326 328 329 330 327 327 326 325 320 314 310 309 310 311 311 310 307 308
243 254 263 289 311 314 314 316 314 314 312 309 308 312 312 310 313 314 315 321 326 323 320 318 320 321 324 324 322 321 322 322 319 316 316 315 313 309 309 308 309 308 308
Height
5871 5871 5870 5869 5869 5868 5867 5866 5866 5865 5864 5864 5863 5863 5862 5863 5863 5864 5864 5866 5867 5868 5869 5869 5871 5874 5876 5877 5879 5880 5881 5882 5883 5884 5885 5886 5886 5887 5888 5888 5888 5888 5888
5872 5871 5871 5870 5870 5868 5867 5866 5866 5865 5865 5864 5864 5863 5862 5863 5864 5864 5866 5867 5867 5868 5868 5869 5872 5874 5876 5878 5879 5881 5881 5882 5883 5884 5885 5886 5887 5887 5888 5888 5888 5888 5888
5873 5872 5872 5871 5870 5869 5868 5867 5867 5866 5866 5865 5864 5863 5862 5863 5864 5866 5867 5867 5867 5867 5867 5870 5873 5875 5876 5878 5879 5881 5881 5883 5884 5885 5886 5886 5887 5887 5888 5888 5888 5888 5888
5874 5873 5872 5871 5870 5870 5869 5868 5868 5867 5867 5866 5865 5864 5864 5864 5865 5866 5867 5868 5869 5869 5869 5872 5874 5875 5877 5879 5880 5881 5882 5883 5884 5885 5886 5887 5887 5887 5888 5888 5888 5888 5888
5875 5874 5873 5872 5871 5871 5870 5869 5869 5868 5867 5866 5866 5865 5865 5865 5866 5867 5867 5869 5871 5871 5872 5873 5875 5877 5879 5880 5880 5881 5882 5883 5885 5885 5886 5887 5888 5888 5888 5888 5888 5888 5888
5876 5875 5874 5873 5873 5872 5871 5870 5870 5869 5868 5867 5866 5865 5865 5866 5867 5868 5869 5871 5872 5874 5875 5876 5877 5878 5879 5880 5881 5882 5883 5884 5885 5886 5887 5888 5888 5888 5888 5888 5888 5888 5888
5877 5876 5875 5875 5874 5873 5873 5872 5871 5870 5869 5868 5866 5866 5866 5866 5868 5869 5870 5872 5874 5875 5876 5878 5878 5879 5881 5882 5883 5883 5883 5884 5886 5887 5888 5888 5888 5888 5888 5888 5888 5888 5888
5878 5878 5877 5876 5875 5874 5874 5873 5872 5871 5870 5868 5867 5866 5866 5867 5869 5870 5872 5873 5875 5876 5878 5879 5880 5880 5882 5883 5884 5884 5884 5885 5886 5887 5888 5888 5889 5889 5888 5888 5888 5888 5888
5879 5879 5878 5877 5876 5876 5875 5874 5874 5872 5871 5870 5868 5867 5867 5869 5870 5872 5873 5875 5876 5878 5879 5880 5881 5882 5883 5884 5884 5885 5885 5886 5887 5888 5888 5889 5889 5889 5889 5889 5889 5888 5888
5880 5880 5879 5878 5877 5877 5877 5876 5875 5875 5873 5872 5871 5869 5870 5871 5873 5874 5875 5877 5878 5879 5880 5881 5882 5883 5884 5884 5885 5886 5886 5887 5887 5888 5888 5889 5889 5889 5889 5889 5889 5888 5888
5881 5881 5880 5880 5879 5879 5878 5878 5877 5877 5876 5875 5874 5873 5873 5874 5875 5876 5877 5878 5879 5880 5881 5882 5883 5884 5884 5885 5886 5886 5887 5888 5888 5888 5889 5889 5889 5889 5889 5889 5888 5888 5888
5882 5882 5881 5881 5881 5881 5880 5880 5879 5879 5878 5877 5877 5876 5876 5877 5877 5878 5879 5880 5881 5881 5882 5883 5883 5884 5885 5886 5886 5887 5887 5888 5888 5888 5888 5889 5888 5888 5888 5889 5888 5888 5887
5884 5883 5883 5883 5883 5883 5882 5882 5881 5881 5880 5880 5879 5879 5879 5879 5880 5880 5881 5882 5882 5882 5883 5884 5884 5885 5885 5886 5887 5887 5887 5888 5888 5888 5888 5888 5888 5888 5888 5888 5888 5887 5887
5886 5885 5885 5885 5885 5884 5884 5884 5883 5883 5882 5882 5881 5881 5881 5882 5882 5882 5883 5883 5883 5884 5884 5884 5885 5885 5885 5886 5887 5887 5887 5887 5888 5888 5888 5888 5888 5887 5887 5887 5887 5886 5886
5888 5888 5887 5887 5887 5887 5886 5886 5885 5885 5884 5884 5884 5883 5883 5883 5884 5884 5884 5884 5884 5884 5884 5885 5885 5885 5886 5886 5887 5887 5887 5887 5887 5887 5887 5887 5887 5887 5886 5886 5886 5885 5884
5890 5890 5889 5889 5889 5888 5888 5888 5887 5887 5886 5886 5886 5885 5885 5885 5885 5885 5885 5885 5885 5885 5885 5885 5885 5886 5886 5886 5887 5887 5887 5887 5887 5887 5887 5886 5886 5886 5885 5885 5884 5884 5883
5892 5892 5891 5891 5891 5890 5890 5890 5889 5889 5888 5888 5887 5887 5887 5886 5886 5886 5886 5886 5886 5885 5885 5885 5886 5886 5886 5886 5886 5886 5887 5887 5887 5886 5886 5885 5885 5884 5884 5883 5883 5882 5881
5894 5893 5893 5893 5893 5892 5892 5891 5891 5890 5890 5889 5889 5889 5888 5888 5887 5887 5887 5887 5886 5886 5886 5886 5886 5886 5886 5886 5886 5886 5886 5886 5886 5885 5885 5884 5884 5883 5882 5882 5881 5881 5879
5895 5895 5894 5894 5894 5894 5894 5893 5893 5892 5892 5891 5891 5890 5889 5889 5888 5888 5888 5887 5887 5886 5886 5886 5886 5886 5886 5885 5885 5885 5885 5885 5885 5885 5884 5883 5882 5882 5881 5880 5880 5879 5878
5896 5896 5896 5896 5895 5895 5895 5895 5894 5894 5893 5893 5892 5891 5890 5890 5890 5889 5888 5888 5887 5887 5887 5886 5886 5886 5886 5885 5885 5885 5885 5884 5884 5884 5883 5882 5881 5881 5880 5879 5878 5877 5876
5897 5897 5897 5897 5897 5896 5896 5896 5895 5895 5894 5893 5893 5892 5891 5891 5890 5890 5889 5888 5888 5887 5887 5886 5886 5886 5885 5885 5884 5884 5884 5883 5883 5882 5882 5881 5880 5880 5879 5878 5876 5875 5874
5899 5898 5898 5897 5897 5897 5897 5897 5896 5895 5894 5894 5893 5893 5892 5892 5891 5890 5889 5889 5888 5887 5887 5886 5886 5885 5885 5884 5883 5883 5883 5883 5881 5881 5880 5879 5879 5878 5877 5876 5875 5873 5872
5900 5899 5899 5898 5898 5898 5897 5897 5896 5895 5895 5894 5894 5893 5893 5892 5891 5890 5889 5889 5888 5887 5887 5886 5885 5885 5884 5883 5882 5882 5881 5881 5880 5879 5878 5878 5877 5876 5875 5874 5873 5871 5870
5900 5900 5899 5899 5898 5898 5898 5897 5896 5896 5895 5894 5894 5893 5893 5892 5891 5890 5889 5888 5887 5887 5886 5885 5884 5884 5883 5882 5881 5880 5880 5879 5879 5878 5877 5876 5875 5874 5873 5872 5870 5869 5867
5900 5900 5899 5899 5898 5898 5898 5897 5896 5896 5895 5894 5894 5893 5892 5892 5891 5890 5889 5888 5887 5886 5885 5885 5884 5883 5882 5881 5880 5879 5878 5877 5877 5876 5875 5874 5873 5872 5870 5869 5867 5866 5865
5900 5899 5899 5899 5898 5898 5897 5896 5896 5895 5894 5894 5893 5892 5891 5891 5890 5889 5889 5888 5887 5886 5885 5884 5883 5882 5881 5880 5879 5878 5877 5876 5875 5874 5873 5872 5870 5869 5867 5866 5864 5863 5861